User: anonymous   Login
Location: Montague
(41.3030°N, 74.7940°W)
Time: 05:27:42
(UTC-04:00)
Language:

Cosmos 1461 - Orbit

View from above orbital plane
View from above orbital plane
View from above satellite
View from above satellite

Ground track
Ground track

The orbit data is extracted from the following two-line orbital elements,

1 14064U 83044A   15144.84359473  .00002953  00000-0  27497-3 0  9993
2 14064 065.0029 095.8012 0114358 334.9218 024.6366 14.91435365610753
Epoch (UTC): 24 May 2015 20:14:46
Eccentricity: 0.0114358
inclination: 65.0029°
perigee height: 514 km
apogee height: 673 km
right ascension of ascending node: 95.8012°
argument of perigee: 334.9218°
revolutions per day: 14.91435365
mean anomaly at epoch: 24.6366°
orbit number at epoch: 61075

The dashed part of the orbit path shows where the satellite is in the earth's shadow,  

DLR